GORIZONT 32 [-]

Last updated on Nov. 15, 2019, 4:20 a.m. UTC

1 23880U 96034A   19318.42711403  .00000063  00000-0  00000+0 0  9995
2 23880  14.3816  14.1249 0012643 315.5256  64.0378  1.00200835 85932
UTC
Height (km)
Latitude
Longitude
Inclination
Orbital Period
UTC large
Height (km)
Speed (km/s)
/
Latitude / Longitude
Inclination (degrees)
Orbital Period (minutes)
Azimuth
Elevation
Range (km)
Doppler Factor
iOS Compass Heading
iOS Angle

Next 30 passes for location: Hong Kong

Rise time Rise Azimuth (degrees) Set time Set Azimuth (degrees) Duration Max altitude (degrees)

No matching passes for this satellites